FW7044 Weather Reports


Display with metric or nautical units.
time (UTC)temp
F
wind
direction
speed
MPH
gust
MPH
rain 1hr
in
rain 24hr
in
rain mn
in
humidity
%
barometer
mb
20260903063609 81 321 0.0 0.0 0.00 0.00 0.00 99 1014.1
20260903063104 81 321 0.0 0.0 0.00 0.00 0.00 99 1014.1
20260903062559 81 310 0.0 0.0 0.00 0.00 0.00 99 1014.1
20260903062054 81 337 0.0 0.0 0.00 0.00 0.00 99 1014.4
20260903061550 81 337 0.0 0.0 0.00 0.00 0.00 99 1014.3
20260903061049 81 331 0.0 0.0 0.00 0.00 0.00 99 1014.4
20260903060549 80 329 0.0 0.0 0.00 0.00 0.00 99 1014.5
20260903060044 80 326 0.0 0.0 0.00 0.00 0.00 99 1014.6
20260903055541 80 323 0.0 0.0 0.00 0.00 0.00 99 1014.7
20260903055040 80 323 0.0 0.0 0.00 0.00 0.00 99 1014.6
20260903054536 80 324 0.0 0.0 0.00 0.00 0.00 99 1014.7
20260903054032 80 322 0.0 0.0 0.00 0.00 0.00 99 1014.8
20260903053532 80 321 0.0 0.0 0.00 0.00 0.00 99 1015.0
20260903053028 80 321 0.0 0.0 0.00 0.00 0.00 99 1015.0
20260903052523 80 321 0.0 0.0 0.00 0.00 0.00 99 1015.0
20260903052019 80 321 0.0 0.0 0.00 0.00 0.00 99 1015.0
20260903051514 80 320 0.0 0.0 0.00 0.00 0.00 99 1015.1
20260903051010 80 320 0.0 0.0 0.00 0.00 0.00 99 1015.3
20260903050509 80 320 0.0 0.0 0.00 0.00 0.00 99 1015.0
20260903050004 80 320 0.0 0.0 0.00 0.00 0.00 99 1015.2
20260903045459 80 320 0.0 0.0 0.00 0.00 0.00 99 1015.2
20260903044955 80 321 0.0 0.0 0.00 0.00 0.00 99 1015.4
20260903044450 80 321 0.0 0.0 0.00 0.00 0.00 99 1015.7
20260903043947 80 321 0.0 0.0 0.00 0.00 0.00 99 1015.5
20260903043442 81 320 0.0 0.0 0.00 0.00 0.00 99 1015.5
20260903042940 80 320 0.0 0.0 0.00 0.00 0.00 99 1015.6
20260903042436 81 320 0.0 0.0 0.00 0.00 0.00 99 1015.7
20260903041931 81 320 0.0 0.0 0.00 0.00 0.00 99 1015.8
20260903041428 81 321 0.0 0.0 0.00 0.00 0.00 99 1015.9
20260903040924 80 318 0.0 0.0 0.00 0.00 0.00 99 1015.9
20260903040422 81 318 0.0 0.0 0.00 0.00 0.00 99 1015.9
20260903035919 81 318 0.0 0.0 0.00 0.00 0.00 99 1016.2
20260903035414 81 321 0.0 0.0 0.00 0.00 0.00 99 1016.0
20260903034914 81 314 0.0 0.0 0.00 0.00 0.00 99 1016.1
20260903034409 81 306 0.0 0.0 0.00 0.00 0.00 99 1016.2
20260903033904 81 306 0.0 0.0 0.00 0.00 0.00 99 1016.2
20260903033359 81 307 0.0 0.0 0.00 0.00 0.00 99 1016.0
20260903032854 81 307 0.0 0.0 0.00 0.00 0.00 99 1016.2
20260903032350 81 308 0.0 0.0 0.00 0.00 0.00 99 1016.2
20260903031845 81 308 0.0 0.0 0.00 0.00 0.00 99 1016.0
20260903031344 81 307 0.0 0.0 0.00 0.00 0.00 99 1016.3
20260903030840 81 307 0.0 0.0 0.00 0.00 0.00 99 1016.3
20260903030336 81 309 0.0 0.0 0.00 0.00 0.00 99 1015.8
20260903025831 81 309 0.0 0.0 0.00 0.00 0.00 99 1016.0
20260903025327 81 308 0.0 0.0 0.00 0.00 0.00 99 1016.2
20260903024826 81 306 0.0 0.0 0.00 0.00 0.00 99 1016.2
20260903024326 82 309 0.0 0.0 0.00 0.00 0.00 99 1016.0
20260903023822 82 307 0.0 0.0 0.00 0.00 0.00 99 1015.9
20260903023317 82 338 0.0 0.0 0.00 0.00 0.00 99 1015.7
20260903022812 81 337 0.0 0.0 0.00 0.00 0.00 99 1015.6
20260903022310 81 355 0.0 0.0 0.00 0.00 0.00 99 1016.0
20260903021805 82 315 0.0 0.0 0.00 0.00 0.00 99 1015.7
20260903021300 82 315 0.0 0.0 0.00 0.00 0.00 99 1015.8
20260903020754 82 315 0.0 0.0 0.00 0.00 0.00 99 1015.9
20260903020249 82 314 0.0 0.0 0.00 0.00 0.00 99 1015.8
20260903015745 82 313 0.0 0.0 0.00 0.00 0.00 98 1015.9
20260903015240 82 309 0.0 0.0 0.00 0.00 0.00 98 1015.9
20260903014735 82 307 0.0 0.0 0.00 0.00 0.00 98 1015.9
20260903014234 82 309 0.0 0.0 0.00 0.00 0.00 98 1015.8
20260903013730 82 309 0.0 0.0 0.00 0.00 0.00 97 1015.6
20260903013229 82 308 0.0 0.0 0.00 0.00 0.00 97 1015.9
20260903012728 82 305 0.0 0.0 0.00 0.00 0.00 97 1015.8
20260903012227 82 305 0.0 0.0 0.00 0.00 0.00 97 1015.7
20260903011722 82 305 0.0 0.0 0.00 0.00 0.00 97 1015.6
20260903011221 82 305 0.0 0.0 0.00 0.00 0.00 96 1015.8
20260903010718 83 305 0.0 0.0 0.00 0.00 0.00 95 1015.5
20260903010217 83 306 0.0 0.0 0.00 0.00 0.00 94 1015.5
20260903005716 83 337 0.0 0.0 0.00 0.00 0.00 94 1015.3
20260903005211 83 120 0.0 0.0 0.00 0.00 0.00 94 1015.3
20260903004707 83 304 0.0 0.0 0.00 0.00 0.00 94 1015.1
20260903004202 83 316 0.0 0.0 0.00 0.00 0.00 94 1015.0
20260903003658 83 328 0.0 0.0 0.00 0.00 0.00 93 1015.3
20260903003153 84 124 0.0 1.0 0.00 0.00 0.00 93 1015.5
20260903002648 84 332 0.0 0.0 0.00 0.00 0.00 92 1015.1
20260903002142 84 148 0.0 0.0 0.00 0.00 0.00 92 1015.2
20260903001636 84 318 0.0 0.0 0.00 0.00 0.00 91 1015.1
20260903001131 84 355 0.0 0.0 0.00 0.00 0.00 91 1014.8
20260903000627 84 19 0.0 0.0 0.00 0.00 0.00 90 1014.8
20260903000126 84 82 0.0 0.0 0.00 0.00 0.00 90 1014.8
20260902235625 84 353 0.0 0.0 0.00 0.00 0.00 89 1014.8
20260902235120 84 287 0.0 0.0 0.00 0.00 0.00 88 1014.7
20260902234614 84 330 0.0 0.0 0.00 0.00 0.00 88 1014.9
20260902234113 85 336 0.0 0.0 0.00 0.00 0.00 87 1015.0
20260902233608 85 340 0.0 0.0 0.00 0.00 0.00 86 1014.6
20260902233102 85 288 0.0 0.0 0.00 0.00 0.00 85 1014.6
20260902232602 85 89 1.0 1.0 0.00 0.00 0.00 85 1014.7
20260902232056 86 342 0.0 0.0 0.00 0.00 0.00 85 1014.5
20260902231556 86 302 0.0 0.0 0.00 0.00 0.00 84 1014.5
20260902231050 86 325 0.0 0.0 0.00 0.00 0.00 83 1014.6
20260902230545 86 310 0.0 1.0 0.00 0.00 0.00 82 1014.6
20260902230044 86 338 2.0 3.0 0.00 0.00 0.00 82 1014.5
20260902225539 87 117 3.0 5.0 0.00 0.00 0.00 82 1014.4
20260902225039 87 58 1.0 1.0 0.00 0.00 0.00 82 1014.5
20260902224538 87 88 2.0 2.0 0.00 0.00 0.00 81 1014.2
20260902224034 87 125 6.0 7.0 0.00 0.00 0.00 79 1014.3
20260902223530 88 91 5.0 6.0 0.00 0.00 0.00 79 1014.3
20260902223029 89 70 1.0 2.0 0.00 0.00 0.00 79 1014.3
20260902222527 89 292 3.0 3.0 0.00 0.00 0.00 78 1014.2
20260902222026 89 80 3.0 6.0 0.00 0.00 0.00 79 1014.3
20260902221521 89 339 3.0 5.0 0.00 0.00 0.00 79 1014.2
20260902221017 90 144 3.0 3.0 0.00 0.00 0.00 78 1014.4
20260902220511 90 156 2.0 3.0 0.00 0.00 0.00 79 1014.5
20260902220006 90 128 1.0 1.0 0.00 0.00 0.00 79 1014.4
20260902215503 91 102 3.0 3.0 0.00 0.00 0.00 78 1014.4
20260902214957 91 129 2.0 3.0 0.00 0.00 0.00 77 1014.4
20260902214456 90 114 1.0 1.0 0.00 0.00 0.00 78 1014.4
20260902213956 91 178 3.0 3.0 0.00 0.00 0.00 78 1014.7
20260902213452 92 71 1.0 2.0 0.00 0.00 0.00 77 1014.6
20260902212950 92 336 2.0 2.0 0.00 0.00 0.00 76 1014.7
20260902212447 91 7 2.0 2.0 0.00 0.00 0.00 76 1014.5
20260902211943 91 356 1.0 3.0 0.00 0.00 0.00 77 1014.4
20260902211439 91 101 4.0 6.0 0.00 0.00 0.00 76 1014.5
20260902210933 92 104 1.0 2.0 0.00 0.00 0.00 78 1014.3
20260902210428 91 132 3.0 3.0 0.00 0.00 0.00 78 1014.2
20260902205926 91 97 2.0 3.0 0.00 0.00 0.00 80 1014.2
20260902205422 93 105 6.0 7.0 0.00 0.00 0.00 77 1014.5
20260902204917 92 216 3.0 3.0 0.00 0.00 0.00 77 1014.7
20260902204417 92 227 0.0 1.0 0.00 0.00 0.00 79 1014.5
20260902203913 91 144 2.0 2.0 0.00 0.00 0.00 78 1014.6
20260902203408 91 94 4.0 5.0 0.00 0.00 0.00 79 1014.6
20260902202902 91 98 3.0 5.0 0.00 0.00 0.00 79 1014.5
20260902202357 91 189 1.0 2.0 0.00 0.00 0.00 79 1014.4
20260902201854 91 28 5.0 6.0 0.00 0.00 0.00 81 1014.4
20260902201354 92 28 1.0 2.0 0.00 0.00 0.00 81 1014.7
20260902200848 91 92 2.0 3.0 0.00 0.00 0.00 81 1014.7
20260902200344 90 36 3.0 5.0 0.00 0.00 0.00 82 1014.6
20260902195839 90 121 1.0 2.0 0.00 0.00 0.00 81 1014.8
20260902195339 89 101 0.0 1.0 0.00 0.00 0.00 82 1014.8
20260902194833 89 315 1.0 1.0 0.00 0.00 0.00 83 1014.8
20260902194328 89 48 1.0 2.0 0.00 0.00 0.00 83 1014.9
20260902193823 89 152 3.0 5.0 0.00 0.00 0.00 84 1014.9
20260902193319 89 109 2.0 3.0 0.00 0.00 0.00 84 1015.0
20260902192818 89 103 6.0 8.0 0.00 0.00 0.00 83 1015.1
20260902192316 89 358 3.0 3.0 0.00 0.00 0.00 84 1015.2
20260902191816 89 66 0.0 1.0 0.00 0.00 0.00 85 1015.3
20260902191312 89 91 3.0 3.0 0.00 0.00 0.00 85 1015.2
20260902190807 90 301 0.0 0.0 0.00 0.00 0.00 83 1015.3
20260902190306 89 284 0.0 0.0 0.00 0.00 0.00 84 1015.5
20260902185803 88 15 1.0 2.0 0.00 0.00 0.00 86 1015.4
20260902185257 89 357 2.0 2.0 0.00 0.00 0.00 85 1015.6
20260902184754 88 4 1.0 1.0 0.00 0.00 0.00 86 1015.6
20260902184249 88 126 3.0 5.0 0.00 0.00 0.00 86 1015.3
20260902183744 89 342 0.0 0.0 0.00 0.00 0.00 85 1015.5
20260902183240 89 164 3.0 3.0 0.00 0.00 0.00 84 1015.5
20260902182736 88 178 1.0 2.0 0.00 0.00 0.00 85 1015.6
20260902182232 89 338 1.0 2.0 0.00 0.00 0.00 85 1015.8
20260902181728 89 182 0.0 0.0 0.00 0.00 0.00 85 1015.7
20260902181227 89 155 1.0 1.0 0.00 0.00 0.00 85 1015.8
20260902180723 89 344 1.0 1.0 0.00 0.00 0.00 84 1015.8
20260902180218 89 105 1.0 1.0 0.00 0.00 0.00 84 1015.7
20260902175713 89 49 1.0 1.0 0.00 0.00 0.00 85 1016.0
20260902175209 89 87 2.0 3.0 0.00 0.00 0.00 85 1015.9
20260902174705 89 81 2.0 2.0 0.00 0.00 0.00 85 1015.9
20260902174201 89 106 3.0 3.0 0.00 0.00 0.00 84 1015.9
20260902173656 89 328 0.0 1.0 0.00 0.00 0.00 84 1015.9
20260902173151 89 64 0.0 1.0 0.00 0.00 0.00 85 1016.1
20260902172645 90 62 0.0 0.0 0.00 0.00 0.00 84 1015.9
20260902172144 90 318 0.0 1.0 0.00 0.00 0.00 83 1015.9
20260902171640 90 335 0.0 0.0 0.00 0.00 0.00 82 1016.3
20260902171136 90 147 2.0 2.0 0.00 0.00 0.00 81 1016.3
20260902170631 91 84 1.0 2.0 0.00 0.00 0.00 81 1016.3
20260902170126 91 346 0.0 0.0 0.00 0.00 0.00 80 1016.3
20260902165621 91 337 2.0 2.0 0.00 0.00 0.00 81 1016.3
20260902165121 91 111 2.0 3.0 0.00 0.00 0.00 80 1016.1
20260902164616 91 151 2.0 3.0 0.00 0.00 0.00 78 1016.2
20260902164115 91 247 0.0 1.0 0.00 0.00 0.00 80 1016.4
20260902163610 91 177 4.0 5.0 0.00 0.00 0.00 78 1016.4
20260902163109 91 335 0.0 0.0 0.00 0.00 0.00 80 1016.6
20260902162608 91 328 0.0 0.0 0.00 0.00 0.00 78 1016.6
20260902162103 92 298 0.0 0.0 0.00 0.00 0.00 76 1016.5
20260902161558 92 263 0.0 0.0 0.00 0.00 0.00 76 1016.5
20260902161054 93 216 0.0 0.0 0.00 0.00 0.00 73 1016.6
20260902160550 95 351 1.0 1.0 0.00 0.00 0.00 73 1016.7
20260902160045 94 298 0.0 0.0 0.00 0.00 0.00 73 1016.8
20260902155538 93 292 0.0 0.0 0.00 0.00 0.00 75 1016.9
20260902155037 92 74 2.0 2.0 0.00 0.00 0.00 76 1016.9
20260902154533 94 355 0.0 0.0 0.00 0.00 0.00 74 1017.0
20260902154033 93 219 1.0 1.0 0.00 0.00 0.00 72 1017.2
20260902153531 95 88 2.0 2.0 0.00 0.00 0.00 73 1017.2
20260902153027 93 297 0.0 0.0 0.00 0.00 0.00 72 1016.8
20260902152523 94 277 0.0 0.0 0.00 0.00 0.00 73 1016.9
20260902152019 96 287 0.0 0.0 0.00 0.00 0.00 72 1017.0
20260902151515 93 92 1.0 1.0 0.00 0.00 0.00 76 1016.8
20260902151014 93 344 0.0 1.0 0.00 0.00 0.00 76 1016.8
20260902150509 93 276 0.0 0.0 0.00 0.00 0.00 78 1016.6
20260902150004 92 244 1.0 2.0 0.00 0.00 0.00 78 1016.9
20260902145459 91 114 0.0 0.0 0.00 0.00 0.00 79 1017.1
20260902144959 91 353 0.0 0.0 0.00 0.00 0.00 81 1017.0
20260902144450 90 301 0.0 0.0 0.00 0.00 0.00 82 1017.2
20260902143944 90 292 0.0 0.0 0.00 0.00 0.00 83 1017.0
20260902143440 89 292 0.0 0.0 0.00 0.00 0.00 84 1017.0
20260902142934 89 291 0.0 0.0 0.00 0.00 0.00 86 1017.1
20260902142430 89 290 0.0 0.0 0.00 0.00 0.00 85 1016.8
20260902141926 89 1 1.0 2.0 0.00 0.00 0.00 85 1017.0
20260902141421 88 299 0.0 0.0 0.00 0.00 0.00 84 1016.8
20260902140920 88 306 0.0 0.0 0.00 0.00 0.00 86 1017.0
20260902140416 88 327 0.0 0.0 0.00 0.00 0.00 87 1017.0
20260902135915 88 331 0.0 0.0 0.00 0.00 0.00 87 1016.9
20260902135412 88 326 0.0 0.0 0.00 0.00 0.00 86 1017.0
20260902134910 89 322 0.0 0.0 0.00 0.00 0.00 86 1016.6
20260902134406 88 296 0.0 0.0 0.00 0.00 0.00 88 1016.6
20260902133901 88 296 0.0 0.0 0.00 0.00 0.00 89 1016.7
20260902133401 88 264 0.0 0.0 0.00 0.00 0.00 88 1017.0
20260902132856 89 7 0.0 0.0 0.00 0.00 0.00 88 1016.8
20260902132351 89 225 0.0 0.0 0.00 0.00 0.00 87 1016.9
20260902131847 87 331 0.0 0.0 0.00 0.00 0.00 90 1016.8
20260902131343 87 35 0.0 0.0 0.00 0.00 0.00 92 1017.0
20260902130842 86 285 0.0 1.0 0.00 0.00 0.00 94 1016.8
20260902130338 84 342 0.0 0.0 0.00 0.00 0.00 99 1017.0
20260902125833 84 335 0.0 1.0 0.00 0.00 0.00 99 1016.7
20260902125329 83 346 0.0 0.0 0.00 0.00 0.00 99 1016.7
20260902124825 83 28 1.0 2.0 0.00 0.00 0.00 99 1016.8
20260902124320 83 301 0.0 0.0 0.00 0.00 0.00 99 1016.7
20260902123815 82 316 0.0 0.0 0.00 0.00 0.00 99 1016.7
20260902123312 83 294 0.0 0.0 0.00 0.00 0.00 99 1016.6
20260902122810 82 330 0.0 0.0 0.00 0.00 0.00 99 1016.6
20260902122307 82 34 2.0 2.0 0.00 0.00 0.00 99 1016.8
20260902121806 81 315 0.0 0.0 0.00 0.00 0.00 99 1016.5
20260902121301 81 300 0.0 0.0 0.00 0.00 0.00 99 1016.7
20260902120756 80 313 0.0 0.0 0.00 0.00 0.00 99 1016.5
20260902120253 79 292 0.0 0.0 0.00 0.00 0.00 99 1016.5
20260902115747 79 292 0.0 0.0 0.00 0.00 0.00 99 1016.4
20260902115244 79 292 0.0 0.0 0.00 0.00 0.00 99 1016.6
20260902114740 78 292 0.0 0.0 0.00 0.00 0.00 99 1016.4
20260902114236 78 292 0.0 0.0 0.00 0.00 0.00 99 1016.5
20260902113736 78 292 0.0 0.0 0.00 0.00 0.00 99 1016.2
20260902113231 78 292 0.0 0.0 0.00 0.00 0.00 99 1016.2
20260902112730 78 292 0.0 0.0 0.00 0.00 0.00 99 1016.2
20260902112228 78 293 0.0 0.0 0.00 0.00 0.00 99 1015.9
20260902111723 78 293 0.0 0.0 0.00 0.00 0.00 99 1016.0
20260902111219 78 293 0.0 0.0 0.00 0.00 0.00 99 1016.1
20260902110714 78 293 0.0 0.0 0.00 0.00 0.00 99 1015.9
20260902110210 78 293 0.0 0.0 0.00 0.00 0.00 99 1015.8
20260902105709 79 293 0.0 0.0 0.00 0.00 0.00 99 1015.9
20260902105205 79 292 0.0 0.0 0.00 0.00 0.00 99 1015.9
20260902104700 79 293 0.0 0.0 0.00 0.00 0.00 99 1015.7
20260902104156 79 293 0.0 0.0 0.00 0.00 0.00 99 1015.7
20260902103655 79 293 0.0 0.0 0.00 0.00 0.00 99 1015.5
20260902103150 79 293 0.0 0.0 0.00 0.00 0.00 99 1015.5
20260902102646 79 293 0.0 0.0 0.00 0.00 0.00 99 1015.8
20260902102144 79 293 0.0 0.0 0.00 0.00 0.00 99 1015.6
20260902101639 79 293 0.0 0.0 0.00 0.00 0.00 99 1015.6
20260902101138 79 293 0.0 0.0 0.00 0.00 0.00 99 1015.7
20260902100633 79 293 0.0 0.0 0.00 0.00 0.00 99 1015.8
20260902100128 79 295 0.0 0.0 0.00 0.00 0.00 99 1015.6
20260902095627 79 295 0.0 0.0 0.00 0.00 0.00 99 1015.4
20260902095126 79 295 0.0 0.0 0.00 0.00 0.00 99 1015.6
20260902094622 79 298 0.0 0.0 0.00 0.00 0.00 99 1015.5
20260902094118 79 300 0.0 0.0 0.00 0.00 0.00 99 1015.5
20260902093617 79 300 0.0 0.0 0.00 0.00 0.00 99 1015.5
20260902093113 79 300 0.0 0.0 0.00 0.00 0.00 99 1015.6
20260902092612 79 300 0.0 0.0 0.00 0.00 0.00 99 1015.6
20260902092108 79 300 0.0 0.0 0.00 0.00 0.00 99 1015.7
20260902091603 79 299 0.0 0.0 0.00 0.00 0.00 99 1015.7
20260902091059 79 299 0.0 0.0 0.00 0.00 0.00 99 1015.7
20260902090555 79 335 0.0 0.0 0.00 0.00 0.00 99 1015.5
20260902090053 79 326 0.0 0.0 0.00 0.00 0.00 99 1015.7
20260902085548 78 326 0.0 0.0 0.00 0.00 0.00 99 1015.4
20260902085043 78 317 0.0 0.0 0.00 0.00 0.00 99 1015.5
20260902084539 79 317 0.0 0.0 0.00 0.00 0.00 99 1015.5
20260902084035 78 316 0.0 0.0 0.00 0.00 0.00 99 1015.1
20260902083525 79 322 0.0 0.0 0.00 0.00 0.00 99 1015.3
20260902083025 79 323 0.0 0.0 0.00 0.00 0.00 99 1015.1
20260902082520 79 323 0.0 0.0 0.00 0.00 0.00 99 1015.2
20260902082017 79 323 0.0 0.0 0.00 0.00 0.00 99 1015.4
20260902081513 79 323 0.0 0.0 0.00 0.00 0.00 99 1015.3
20260902081012 79 322 0.0 0.0 0.00 0.00 0.00 99 1015.3
20260902080508 79 322 0.0 0.0 0.00 0.00 0.00 99 1015.3
20260902080004 79 322 0.0 0.0 0.00 0.00 0.00 99 1015.5
20260902075459 79 323 0.0 0.0 0.00 0.00 0.00 99 1015.2
20260902074955 79 322 0.0 0.0 0.00 0.00 0.00 99 1015.3
20260902074450 79 322 0.0 0.0 0.00 0.00 0.00 99 1015.6
20260902073950 78 322 0.0 0.0 0.00 0.00 0.00 99 1015.6
20260902073446 78 322 0.0 0.0 0.00 0.00 0.00 99 1015.7
20260902072942 78 323 0.0 0.0 0.00 0.00 0.00 99 1015.6
20260902072438 78 323 0.0 0.0 0.00 0.00 0.00 99 1015.4
20260902071934 78 317 0.0 0.0 0.00 0.00 0.00 99 1015.6
20260902071433 79 316 0.0 0.0 0.00 0.00 0.00 99 1015.6
20260902070930 79 317 0.0 0.0 0.00 0.00 0.00 99 1015.6
20260902070425 79 316 0.0 0.0 0.00 0.00 0.00 99 1015.6
20260902065924 78 316 0.0 0.0 0.00 0.00 0.00 99 1015.5
20260902065419 78 317 0.0 0.0 0.00 0.00 0.00 99 1015.2
20260902064914 78 318 0.0 0.0 0.00 0.00 0.00 99 1015.4
20260902064410 78 307 0.0 0.0 0.00 0.00 0.00 99 1015.7